Regional Weather Roundup
Issued by NWS New Orleans/Baton Rouge, LA

Home | Current Version | Previous Version | Text Only | Print | Product List | Glossary On
Versions: 1 2 3 4 5 6 7 8 9 10 11 12 13 14 15 16 17 18 19 20 21 22 23 24 25 26 27 28 29 30 31 32 33 34 35 36 37 38 39 40 41 42 43 44 45 46 47 48 49 50
000
ASUS44 KLIX 250710
RWRLIX
NEW ORLEANS REGIONAL WEATHER ROUNDUP
NATIONAL WEATHER SERVICE NEW ORLEANS LA
200 AM CDT FRI JUL 25 2014

NOTE: "FAIR" INDICATES FEW OR NO CLOUDS BELOW 12,000 FEET WITH NO
      SIGNIFICANT WEATHER AND/OR OBSTRUCTIONS TO VISIBILITY.
      SKY/WX - SKY CONDITION AND SIGNIFICANT WEATHER.
      TMP - AIR TEMPERATURE.     DP    - DEWPOINT TEMPERATURE.
      RH  - RELATIVE HUMIDITY.   PRES  - PRESSURE.
      HI  - HEAT INDEX.          WCI   - WIND CHILL INDEX.

*  THESE STATIONS ARE NOT NWS OR FAA STATIONS AND ARE NOT UNDER
   NWS QUALITY CONTROL.

LAZ038-040-048-061>063-065>067-069-250800-
SOUTHEAST LOUISIANA

CITY           SKY/WX    TMP DP  RH WIND       PRES   REMARKS
N.O. AUDUBON   NOT AVBL
N.O. INTL ARPT MOCLDY    78  75  90 W5        29.99R
N.O. LAKEFRONT CLOUDY    82  75  79 SW5       29.99R
N.O. DOWNTOWN* PTSUNNY   81  72  74 CALM      29.99S
SLIDELL        CLEAR     75  73  93 CALM      29.98S
BATON ROUGE    CLEAR     75  73  93 CALM      29.99S FOG
BOOTHVILLE     PTCLDY    82  77  84 SW13      29.99S
BELLE CHASSE   CLEAR     76  72  87 SW5       29.99R
BOGALUSA*        N/A     77  73  87 CALM      30.00S
GALLIANO*      NOT AVBL
NEW ROADS*       N/A     76  75  98 CALM      30.00R FOG
GONZALES*        N/A     74  74 100 CALM      30.00R FOG
HAMMOND*       CLEAR     75  72  88 CALM      30.01R
HOUMA*         CLEAR     76  72  87 CALM      30.00S FOG
PORT FOURCHON* MOSUNNY   82  75  78 SW8       30.01F

$$

MSZ070-080>082-250800-
SOUTHERN MISSISSIPPI

CITY           SKY/WX    TMP DP  RH WIND       PRES   REMARKS
MCCOMB         MOCLDY    75  72  90 CALM      30.01S
GULFPORT       CLEAR     79  74  84 CALM      29.97S
BILOXI         CLEAR     79  74  84 CALM      29.98S
PASCAGOULA     CLEAR     73  72  96 CALM      29.98F

$$

COASTAL OBSERVATIONS
LAKE AND NEARSHORE STATIONS

STATION/POSITION TIME  TEMP    WIND        PRES    WAVE
                       AIR SEA DIR/SP/G            HT/PER
                 (UTC) (F)     (DEG/KT/KT) (MB)    (FT/S)
PASCAGOULA       0700   82     220/  6/  7 1014.6
WAVELAND YACHT   0700   80     220/  3/  3 1014.5
GRAND ISLE       0700   81 84  250/  8/ 11 1016.4
SOUTHWEST PASS   0700   83 85  220/ 13/ 19 1016.0
NEW CANAL        0700   83 83  270/  5/  6 1015.9
SHELL BEACH      0700   80 81  250/  5/  6 1015.4

OFFSHORE STATIONS

STATION/POSITION TIME  TEMP    WIND        PRES    WAVE
                       AIR SEA DIR/SP/G            HT/PER
                 (UTC) (F)     (DEG/KT/KT) (MB)    (FT/S)
64 S DAUPHIN ISL 0556   82 84  250/ 12/ 14 1015.5

$$



USA.gov is the U.S. government's official web portal to all federal, state and local government web resources and services.